2022-098N (53456 NORAD) Tracking and Keplerian Element Data

This shows tracking and keplerian element data for the satellite.

Feedback or suggestion? Click here.




ElementValue
Catalog53456
Name2022-098N
Epoch Orbit722
Epoch Day270.16823757
Epoch Year2022
RAAN5.6827
Inclination97.527
Eccentricity0.0012954
Argument of Perigee117.2113
Mean Anonmoly332.6477
Mean Motion15.1051101
Decay Rate6.666E-05
L11 53456U 22098N 22270.16823757 .00006666 00000+0 40757-3 0 9995
L22 53456 97.5270 5.6827 0012954 117.2113 332.6477 15.10511010 7228

Live tracking and technical data element details for 2022-098N (NORAD 53456). 2022-098N can be tracked NOW for your location showing map with azimuth and elevation plus other details from your city location.

Track the satellite on the map from your city or location and see movement details for azimuth, elevation, latitude, longitude, range, height, and movement on the map or in text.







IsCatalogInMostPopularTable: catalog: 53456, numindb: 4
Update: records affected: 1



GetName: 53456 2022-098N

Hit Count: updated at: Fri, 30 Sep 2022 02:24:30 GMT